Simultaneous Nadir Overpasses (SNOs) Predictions

Prediction of SNOs between GOES-15 and NOAA-20 Satellite Orbit:

Table of predicted SNOs for the next 14.0 days since TLE Epoch: 9/23/2023
Index Date Time (GOES-15) GOES-15 Lat,Lon NOAA-20 Lat,Lon Distance(km) Time Diff (sec)
1 09/23/2023 18:20:56 0.34, 104.78 0.12, 105.79 114.75 80
2 09/25/2023 06:45:37 -0.32, 103.13 -0.92, 100.40 311.17 80
3 09/26/2023 06:24:14 -0.33, 102.08 0.29, 104.89 320.39 80
4 09/27/2023 18:48:47 0.31, 100.49 0.52, 99.55 107.38 80
5 09/30/2023 06:49:26 -0.31, 97.78 -0.11, 98.65 99.82 80
6 10/01/2023 19:13:58 0.29, 96.16 0.91, 93.30 325.49 80
7 10/02/2023 18:52:35 0.31, 95.11 -0.31, 97.79 306.54 80
8 10/04/2023 07:17:16 -0.29, 93.45 -0.53, 92.42 117.96 80
9 10/06/2023 19:17:46 0.28, 90.76 0.10, 91.56 90.83 80
